Weather reports worldwide

Advertisment
Villacoublay, France (7147): temperature & dewpoint: 08.12.2019 02:00:00 - 14.12.2019 02:00:00 (CET)Villacoublay, France (7147): temperature 5cm: 08.12.2019 02:00:00 - 14.12.2019 02:00:00 (CET)Villacoublay, France (7147): wind speed & gusts: 08.12.2019 02:00:00 - 14.12.2019 02:00:00 (CET)Villacoublay, France (7147): wind direction: 08.12.2019 02:00:00 - 14.12.2019 02:00:00 (CET)Villacoublay, France (7147): reduced air pressure: 08.12.2019 02:00:00 - 14.12.2019 02:00:00 (CET)Villacoublay, France (7147): visibility: 08.12.2019 02:00:00 - 14.12.2019 02:00:00 (CET)Villacoublay, France (7147): precipitation: 08.12.2019 02:00:00 - 14.12.2019 02:00:00 (CET)
Date & Time tt [°C] td [°C] tt 5cm [°C] ff [km/h] ff [kn] fx [km/h] fx [kn] dd ppp [hPa] vv [km] rr [mm]
14.12.2019 02:00:00 10,9 8,5 8,7 39 21 72 39 W 987,4 60 0,2
14.12.2019 01:00:00 9,1 8,5 7,3 19 11 48 26 SW 987,4 2,6 0,2
14.12.2019 00:00:00 7,9 7,1 6,0 24 13 43 23 SW 988,4 56 0,2
13.12.2019 23:00:00 6,3 5,9 5,5 14 8 42 23 SW 990,3 16 0,2
13.12.2019 22:00:00 6,3 4,9 5,0 19 11 38 21 SSW 991,1 19 0,0
13.12.2019 21:00:00 6,1 4,4 5,2 19 10 42 23 SW 993,1 28 0,0
13.12.2019 20:00:00 6,4 2,5 5,5 15 8 31 17 WSW 992,9 39 0,0
13.12.2019 19:00:00 6,3 1,6 5,1 17 9 37 20 WSW 993,1 44 0,0
13.12.2019 18:00:00 6,1 2,2 4,1 23 13 38 21 W 992,8 41 0,0
13.12.2019 17:00:00 6,4 1,5 5,1 21 11 45 24 W 992,4 57 0,0
13.12.2019 16:00:00 7,5 1,1 7,6 29 16 57 31 W 991,2 24 0,0
13.12.2019 15:00:00 7,6 1,9 7,9 35 19 69 37 W 990,2 23 0,0
13.12.2019 14:00:00 7,8 1,8 9,1 36 20 68 37 W 989,0 19 0,0
13.12.2019 13:00:00 7,6 1,6 8,5 42 23 85 46 W 987,9 20 0,0
13.12.2019 12:00:00 7,4 3,4 5,5 36 20 59 32 W 986,9 20 0,0
13.12.2019 11:00:00 5,9 2,7 4,5 28 15 79 42 W 985,8 18 0,2
13.12.2019 10:00:00 5,6 3,3 4,0 36 20 59 32 W 984,4 8 0,4
13.12.2019 09:00:00 4,8 2,8 3,5 37 20 82 45 W 982,9 20 2,2
13.12.2019 08:00:00 4,7 3,0 3,9 44 24 77 42 W 981,6 5 1,2
13.12.2019 07:00:00 6,4 2,8 5,1 37 20 71 38 W 979,8 53 0,2
13.12.2019 06:00:00 6,5 3,5 5,2 29 16 55 30 W 978,9 20 0,0
13.12.2019 05:00:00 6,4 3,5 5,3 34 18 57 31 W 978,3 46 1,2
13.12.2019 04:00:00 7,7 6,0 6,8 19 11 36 20 WSW 977,8 14 0,2
13.12.2019 03:00:00 8,1 6,6 7,4 19 10 40 21 SW 977,8 60 1,2
13.12.2019 02:00:00 7,7 7,3 7,1 19 11 38 20 SW 979,9 3,9 3,4
13.12.2019 01:00:00 7,5 6,8 7,0 21 11 48 26 SW 981,4 7 0,8
13.12.2019 00:00:00 7,3 6,4 6,5 17 9 36 19 SW 983,4 32 0,0
12.12.2019 23:00:00 6,9 6,3 6,2 16 9 33 18 SW 984,9 34 0,0
12.12.2019 22:00:00 6,7 6,3 5,4 17 9 30 16 WSW 985,4 57 0,0
12.12.2019 21:00:00 6,0 5,7 5,3 12 6 27 14 SW 986,0 17 0,2
12.12.2019 20:00:00 5,7 5,4 5,5 16 9 35 19 SSE 987,2 4,1 0,9
12.12.2019 19:00:00 6,0 5,1 5,5 26 14 58 31 S 988,4 8 2,8
12.12.2019 18:00:00 5,8 5,4 5,5 21 11 43 23 S 989,9 4,5 2,8
12.12.2019 17:00:00 6,0 5,3 5,5 25 14 50 27 S 991,3 7 0,2
12.12.2019 16:00:00 5,6 5,0 4,6 28 15 45 25 S 993,1 35 0,0
12.12.2019 15:00:00 4,7 4,4 4,1 24 13 48 26 S 995,3 20 0,0
12.12.2019 14:00:00 4,1 3,8 3,5 26 14 44 24 S 997,6 5 0,4
12.12.2019 13:00:00 3,6 3,0 3,1 23 12 41 22 SSE 1000,0 3,5 0,2
12.12.2019 12:00:00 3,1 2,1 3,0 19 10 32 17 S 1002,3 9 0,4
12.12.2019 11:00:00 2,7 1,8 2,2 17 9 30 16 S 1004,0 20 0,0
12.12.2019 10:00:00 1,9 1,6 1,9 18 10 36 19 S 1005,2 16 0,0
12.12.2019 09:00:00 1,8 1,5 1,6 14 7 27 14 SSW 1006,0 6 0,0
12.12.2019 08:00:00 1,7 1,4 1,5 16 8 28 15 SW 1006,6 10 0,0
12.12.2019 07:00:00 1,8 1,4 0,9 13 7 23 13 SW 1007,3 29 0,0
12.12.2019 06:00:00 1,8 1,2 0,8 14 7 24 13 WSW 1007,4 32 0,0
12.12.2019 05:00:00 1,7 1,0 0,7 11 6 28 15 WSW 1007,9 54 0,0
12.12.2019 04:00:00 2,3 1,6 1,6 15 8 29 15 WSW 1007,8 50 0,0
12.12.2019 03:00:00 2,8 1,8 2,2 16 9 31 17 W 1007,9 60 0,0
12.12.2019 02:00:00 3,4 2,4 2,8 18 10 36 20 W 1007,6 60 0,0
12.12.2019 01:00:00 3,8 2,8 3,5 19 11 34 18 W 1007,3 55 0,0
12.12.2019 00:00:00 4,0 3,1 3,6 13 7 26 14 WSW 1007,2 60 0,0
11.12.2019 23:00:00 4,2 3,3 3,8 13 7 25 13 WSW 1006,8 20 0,2
11.12.2019 22:00:00 5,0 4,0 4,4 10 5 22 12 WSW 1006,7 18 0,2
11.12.2019 21:00:00 5,3 3,8 4,7 13 7 23 13 SW 1006,8 60 0,0
11.12.2019 20:00:00 5,6 3,9 5,2 11 6 29 16 SSW 1006,9 60 0,0
11.12.2019 19:00:00 6,1 4,7 5,1 15 8 34 18 SSW 1007,0 20 0,0
11.12.2019 18:00:00 6,0 4,3 5,1 13 7 28 15 SSW 1007,6 32 0,0
11.12.2019 17:00:00 6,5 4,3 5,9 15 8 33 18 SSW 1008,0 20 0,0
11.12.2019 16:00:00 7,0 4,5 6,8 17 9 28 15 SW 1008,7 20 0,0
11.12.2019 15:00:00 7,0 5,1 7,2 13 7 26 14 SW 1009,0 20 0,0
11.12.2019 14:00:00 7,1 5,4 7,6 15 8 24 13 SW 1009,6 20 0,0
11.12.2019 13:00:00 7,0 5,6 7,5 13 7 22 12 WSW 1010,1 19 0,0
11.12.2019 12:00:00 6,8 5,7 6,9 13 7 21 11 WSW 1010,6 19 0,0
11.12.2019 11:00:00 6,4 5,8 6,3 14 8 23 12 WSW 1011,3 43 0,0
11.12.2019 10:00:00 6,1 5,8 5,7 9 5 15 8 WSW 1011,3 33 0,0
11.12.2019 09:00:00 5,9 5,6 5,6 8 5 14 8 SW 1011,3 27 0,2
11.12.2019 08:00:00 6,0 5,7 5,7 6 3 13 7 SW 1011,4 10 0,4
11.12.2019 07:00:00 6,0 5,7 5,8 8 4 20 11 SW 1011,4 11 0,8
11.12.2019 06:00:00 6,0 5,6 5,8 11 6 23 13 SW 1011,8 10 0,4
11.12.2019 05:00:00 6,1 5,5 5,8 12 7 30 16 SW 1012,2 8 1,0
11.12.2019 04:00:00 6,2 5,5 5,8 15 8 38 20 SSW 1012,8 19 0,0
11.12.2019 03:00:00 6,2 5,5 5,8 16 9 43 23 SSW 1013,8 8 0,0
11.12.2019 02:00:00 6,7 4,9 6,3 20 11 42 23 SSW 1014,0 36 0,0
11.12.2019 01:00:00 6,4 4,7 5,7 18 10 40 22 SSW 1015,3 31 0,0
11.12.2019 00:00:00 6,1 4,6 5,3 18 10 42 23 SSW 1015,8 31 0,0
10.12.2019 23:00:00 6,6 3,6 5,9 20 11 46 25 SSW 1016,6 40 0,0
10.12.2019 22:00:00 6,1 3,1 5,6 23 12 43 23 S 1017,4 39 0,0
10.12.2019 21:00:00 6,0 3,2 4,8 22 12 42 23 S 1018,3 31 0,0
10.12.2019 20:00:00 6,1 2,9 5,6 24 13 38 20 S 1019,2 38 0,0
10.12.2019 19:00:00 5,9 2,7 5,2 22 12 44 24 S 1019,9 37 0,0
10.12.2019 18:00:00 5,8 2,6 5,5 24 13 43 23 S 1020,3 36 0,0
10.12.2019 17:00:00 5,8 2,8 5,5 19 11 39 21 S 1021,5 35 0,0
10.12.2019 16:00:00 6,1 3,3 5,8 18 10 41 22 S 1022,6 20 0,0
10.12.2019 15:00:00 6,6 3,0 6,5 23 13 41 22 S 1023,4 19 0,0
10.12.2019 14:00:00 5,8 2,8 5,9 21 11 36 19 SSW 1024,6 19 0,0
10.12.2019 13:00:00 5,5 2,5 6,6 21 11 39 21 SSW 1025,8 19 0,0
10.12.2019 12:00:00 5,3 2,1 5,2 16 9 30 16 SSW 1026,8 19 0,0
10.12.2019 11:00:00 4,0 1,7 2,3 14 8 24 13 S 1027,6 19 0,0
10.12.2019 10:00:00 2,7 1,1 -0,2 9 5 16 8 SSW 1027,8 15 0,0
10.12.2019 09:00:00 1,5 0,2 -0,4 6 3 17 9 SSW 1028,8 20 0,0
10.12.2019 08:00:00 1,5 0,0 -1,2 8 4 13 7 SSW 1028,6 32 0,0
10.12.2019 07:00:00 1,3 0,1 -4,1 7 4 13 7 SSW 1028,8 20 0,0
10.12.2019 06:00:00 0,3 -0,3 -4,3 4 2 10 5 S 1029,0 17 0,0
10.12.2019 05:00:00 -0,3 -0,6 -4,7 5 3 9 5 WSW 1029,1 18 0,0
10.12.2019 04:00:00 0,4 -0,2 -4,2 4 2 10 5 SW 1029,1 18 0,0
10.12.2019 03:00:00 1,3 0,7 -3,9 5 3 12 7 WSW 1029,0 17 0,0
10.12.2019 02:00:00 -0,1 -0,8 -3,0 6 3 11 6 W 1028,5 19 0,0
10.12.2019 01:00:00 2,1 0,6 -1,7 6 3 10 5 WSW 1028,1 20 0,0
10.12.2019 00:00:00 2,7 0,4 -1,6 7 4 12 7 NW 1027,1 35 0,0
09.12.2019 23:00:00 3,7 0,7 -0,9 6 3 12 7 WNW 1026,3 39 0,0
09.12.2019 22:00:00 4,6 0,2 1,5 8 4 16 9 NNW 1025,2 50 0,0
09.12.2019 21:00:00 5,1 0,3 2,9 9 5 31 17 NNW 1024,2 56 0,0
09.12.2019 20:00:00 6,3 0,8 5,0 18 10 36 19 NW 1022,8 58 0,0
09.12.2019 19:00:00 6,6 0,9 5,5 19 11 40 22 NW 1021,2 60 0,0
09.12.2019 18:00:00 7,5 0,9 6,3 25 13 54 29 NW 1019,7 60 0,0
09.12.2019 17:00:00 8,2 1,6 7,1 28 15 61 33 NW 1017,8 60 0,0
09.12.2019 16:00:00 8,7 2,3 8,1 28 15 65 35 NW 1015,8 33 0,0
09.12.2019 15:00:00 9,2 4,0 9,2 29 16 62 34 NW 1013,6 28 0,0
09.12.2019 14:00:00 8,7 4,9 7,4 28 15 54 29 NW 1011,7 26 0,0
09.12.2019 13:00:00 8,9 4,7 8,4 34 19 53 29 WNW 1010,2 33 0,0
09.12.2019 12:00:00 8,9 4,9 7,1 36 20 60 33 WNW 1008,2 20 0,2
09.12.2019 11:00:00 8,6 6,0 7,0 34 19 62 34 WNW 1006,5 20 0,5
09.12.2019 10:00:00 7,6 6,5 6,2 33 18 63 34 WNW 1004,2 3,7 2,4
09.12.2019 09:00:00 6,9 5,5 5,4 27 15 46 25 W 1003,1 12 2,6
09.12.2019 08:00:00 6,0 5,0 4,4 20 11 38 21 WSW 1003,3 6 0,8
09.12.2019 07:00:00 4,9 4,0 4,3 14 8 49 26 SW 1003,1 59 3,9
09.12.2019 06:00:00 6,6 5,1 5,7 24 13 55 30 WSW 1003,1 3,2 1,8
09.12.2019 05:00:00 7,4 4,4 6,6 30 16 58 32 WSW 1002,9 50 0,0
09.12.2019 04:00:00 7,4 4,5 5,7 26 14 62 33 SW 1003,3 32 0,0
09.12.2019 03:00:00 7,0 4,5 5,8 27 15 51 27 SW 1004,1 10 0,0
09.12.2019 02:00:00 6,8 4,1 5,9 25 13 51 27 SW 1005,0 48 0,0
09.12.2019 01:00:00 6,4 4,1 5,6 25 13 47 25 SW 1006,3 60 0,0
09.12.2019 00:00:00 6,8 3,8 6,1 24 13 53 28 WSW 1006,9 60 0,0
08.12.2019 23:00:00 8,0 4,0 7,2 27 15 49 27 WSW 1007,0 60 0,0
08.12.2019 22:00:00 7,9 5,2 6,6 22 12 48 26 SW 1007,4 44 0,0
08.12.2019 21:00:00 7,7 4,8 6,7 17 9 42 23 SW 1007,5 58 0,0
08.12.2019 20:00:00 8,6 5,0 8,1 27 15 50 27 WSW 1008,2 51 0,0
08.12.2019 19:00:00 8,7 6,0 7,6 21 11 38 21 SW 1007,8 18 0,0
08.12.2019 18:00:00 8,7 5,8 7,8 17 9 38 21 WSW 1008,1 16 0,0
08.12.2019 17:00:00 9,1 5,6 8,0 18 10 37 20 WSW 1008,4 18 0,0
08.12.2019 16:00:00 9,8 6,3 9,3 16 9 36 19 WSW 1008,4 19 0,0
08.12.2019 15:00:00 10,5 7,4 10,4 21 11 40 22 W 1008,5 20 0,0
08.12.2019 14:00:00 10,5 7,6 9,1 25 14 43 23 W 1008,7 32 0,0
08.12.2019 13:00:00 9,8 8,1 9,1 36 19 62 33 W 1009,1 2,9 0,8
08.12.2019 12:00:00 11,2 10,7 10,7 19 11 47 26 SW 1009,1 4,1 0,2
08.12.2019 11:00:00 10,9 10,3 10,4 23 12 49 26 SW 1009,7 4,1 0,2
08.12.2019 10:00:00 10,7 9,8 9,5 29 15 58 31 SW 1009,6 60 0,2
08.12.2019 09:00:00 9,9 9,3 9,2 22 12 49 26 SW 1009,8 0,8 2,0
08.12.2019 08:00:00 10,0 8,6 9,2 25 13 61 33 SW 1010,7 17 0,2
08.12.2019 07:00:00 10,1 8,0 9,6 29 16 63 34 SW 1010,8 60 0,0
08.12.2019 06:00:00 9,9 7,5 9,5 23 12 46 25 SW 1011,1 60 0,0
08.12.2019 05:00:00 9,8 8,1 8,9 23 13 46 25 SW 1011,9 60 0,0
08.12.2019 04:00:00 9,7 7,5 9,2 23 13 51 28 SW 1013,0 60 0,0
08.12.2019 03:00:00 9,7 7,0 9,0 29 16 54 29 SW 1014,0 60 0,0
08.12.2019 02:00:00 9,7 8,6 9,1 23 12 43 23 SW 1014,6 17 0,0

tt = temperature
td = dewpoint
tt 5cm = temperature 5cm
ff = wind speed
fx = gusts
dd = wind direction
ppp = reduced air pressure
vv = visibility
rr = precipitation

Next stations